This demonstration page uses our WeatherBlox Daily Observations layout. Learn more.

Left ArrowRight Arrow

36.17497, -115.13722

Hourly Observations for April 28, 2017

Temp ( °F °C ) Dew Point ( °F °C ) Humidity (%) Winds ( mph kmh ) Pressure ( in mb ) Visibility ( mi km ) Precip ( " mm )
12:53 am 00:53 Cloudy 69 20.6 1 -17.2 6 6 N 15 24 29.71 1006 10 16.0934 N/A
1:53 am 01:53 Cloudy 67 19.4 4 -15.6 8 8 N 14 22 29.74 1007 10 16.0934 N/A
2:53 am 02:53 Cloudy 64 17.8 11 -11.7 12 12 ENE 9 15 29.76 1008 10 16.0934 N/A
3:53 am 03:53 Mostly Clear 62 16.7 13 -10.6 14 14 ENE 10 17 29.78 1008 10 16.0934 N/A
4:53 am 04:53 Cloudy 61 16.1 14 -10 16 16 NNW 16 26 29.81 1009 10 16.0934 N/A
5:53 am 05:53 Sunny 59 15 15 -9.4 18 18 N 12 19 29.83 1010 10 16.0934 N/A
6:53 am 06:53 Sunny 59 15 15 -9.4 18 18 N 14 22 29.87 1011 10 16.0934 N/A
7:53 am 07:53 Sunny 60 15.6 14 -10 16 16 N 18 30 29.88 1012 10 16.0934 N/A
8:53 am 08:53 Sunny 62 16.7 12 -11.1 14 14 N 16 26 29.89 1012 10 16.0934 N/A
9:53 am 09:53 Sunny 63 17.2 11 -11.7 13 13 NNW 20 31 29.88 1012 10 16.0934 N/A
10:53 am 10:53 Sunny 65 18.3 9 -12.8 11 11 NW 20 31 29.88 1012 10 16.0934 N/A
11:53 am 11:53 Sunny 67 19.4 10 -12.2 11 11 N 23 37 29.86 1011 10 16.0934 N/A
12:53 pm 12:53 Sunny 68 20 7 -13.9 9 9 N 18 30 29.85 1011 10 16.0934 N/A
1:53 pm 13:53 Sunny 69 20.6 1 -17.2 6 6 N 23 37 29.84 1010 10 16.0934 N/A
2:53 pm 14:53 Sunny 71 21.7 N/A 6 6 N 21 33 29.83 1010 10 16.0934 N/A
3:53 pm 15:53 Sunny 71 21.7 3 -16.1 7 7 N 18 30 29.83 1010 10 16.0934 N/A
4:53 pm 16:53 Sunny 69 20.6 -1 -18.3 6 6 N 14 22 29.84 1010 10 16.0934 N/A
5:53 pm 17:53 Sunny 69 20.6 -1 -18.3 6 6 N 22 35 29.84 1011 10 16.0934 N/A
6:53 pm 18:53 Sunny 66 18.9 2 -16.7 8 8 NNW 21 33 29.86 1011 10 16.0934 N/A
7:53 pm 19:53 Clear 64 17.8 10 -12.2 12 12 NE 14 22 29.91 1013 10 16.0934 N/A
8:53 pm 20:53 Clear 62 16.7 13 -10.6 14 14 NE 17 28 29.95 1014 10 16.0934 N/A
9:53 pm 21:53 Clear 61 16.1 13 -10.6 15 15 NE 14 22 29.98 1015 10 16.0934 N/A
10:53 pm 22:53 Clear 60 15.6 13 -10.6 16 16 NNE 10 17 29.99 1016 10 16.0934 N/A
11:53 pm 23:53 Clear 60 15.6 15 -9.4 17 17 N 13 20 30.01 1016 10 16.0934 N/A

Powered by AerisWeather